Flag for Netherlands Weather past 2 weeks in Tilburg, Netherlands

Now
66 °F

Mostly cloudy.


Feels Like: 66 °F
Forecast: 53 / 80 °F
Wind: 9 mph from Northwest

Location: Gilze-Rijen

Current Time: Aug 4, 2015 at 3:40:50 AM

Latest Report: Aug 4, 2015 at 2:55 AM


Visibility: N/A

Pressure: 29.86 "Hg

Humidity: 83%

Dew point: 61 °F

Location of TilburgLocation

Historic Weather in Tilburg — Graph

°F

Tilburg temperature yesterday

Maximum temperature yesterday: 88 °F (at 12:55 PM)
Minimum temperature yesterday: 59 °F (at 5:55 AM)
Average temperature yesterday: 74 °F

Past Weeks' High & Low Weather Summary

 TemperatureHumidityPressure
High88 °F (Aug 3, 12:55 PM)100% (Jul 20, 2:25 AM)30.15 "Hg (Jul 20, 2:25 AM)
Low43 °F (Jul 31, 4:55 AM)31% (Aug 3, 1:25 PM)29.45 "Hg (Jul 25, 5:25 AM)
Average63 °F74%29.88 "Hg
* Reported Jul 20 2:25 AM — Aug 4 2:25 AM, Tilburg, Weather by CustomWeather, © 2015

Note: Actual official high and low records may vary slightly from our data, if they occured in-between our weather recording intervals... More about our weather records

Advertising

Tilburg weather history for previous 24 hours

 ConditionsComfort  
Time TempWeatherWind HumidityBarometerVisibility
2:25 AM
Tue, Aug 4
66 °FMostly cloudy.6 mph83%29.86 "HgN/A
1:55 AM66 °FPassing clouds.7 mph83%29.86 "HgN/A
1:25 AM66 °FPartly cloudy.5 mph83%29.86 "HgN/A
12:55 AM64 °FMild.6 mph88%29.86 "HgN/A
12:25 AM66 °FMild.6 mph83%29.89 "HgN/A
11:55 PM
Mon, Aug 3
66 °FPassing clouds.5 mph83%29.89 "HgN/A
11:25 PM66 °FMild.5 mph83%29.89 "HgN/A
10:55 PM68 °FMild.7 mph83%29.89 "HgN/A
10:25 PM68 °FMild.7 mph83%29.89 "HgN/A
9:55 PM72 °FMild.6 mph73%29.89 "HgN/A
9:25 PM73 °FPassing clouds.7 mph69%29.89 "HgN/A
8:55 PM75 °FScattered clouds.7 mph65%29.89 "HgN/A
8:25 PM77 °FPassing clouds.8 mph65%29.89 "HgN/A
7:55 PM77 °FWarm.10 mph61%29.89 "HgN/A
7:25 PM79 °FPassing clouds.12 mph58%29.89 "HgN/A
6:55 PM82 °FWarm.8 mph55%29.89 "HgN/A
6:25 PM84 °FPassing clouds.5 mph51%29.89 "HgN/A
5:55 PM84 °FWarm.5 mph48%29.89 "HgN/A
5:25 PM84 °FClear.6 mph48%29.89 "HgN/A
4:55 PM84 °FPassing clouds.7 mph48%29.89 "HgN/A
4:25 PM84 °FWarm.8 mph48%29.89 "HgN/A
3:55 PM84 °FWarm.9 mph48%29.89 "HgN/A
3:25 PM84 °FPassing clouds.13 mph48%29.92 "HgN/A
2:55 PM86 °FPassing clouds.10 mph43%29.89 "HgN/A
2:25 PM88 °FClear.10 mph33%29.89 "HgN/A
1:55 PM88 °FPleasantly warm.15 mph33%29.92 "HgN/A
1:25 PM88 °FPleasantly warm.14 mph31%29.92 "HgN/A
12:55 PM88 °FPleasantly warm.15 mph33%29.92 "HgN/A
12:25 PM86 °FPleasantly warm.13 mph35%29.92 "HgN/A
11:55 AM84 °FPleasantly warm.10 mph40%29.92 "HgN/A
11:25 AM82 °FPassing clouds.10 mph42%29.92 "HgN/A
10:55 AM81 °FPassing clouds.12 mph45%29.92 "HgN/A
10:25 AM77 °FWarm.10 mph51%29.92 "HgN/A
9:55 AM75 °FMild.12 mph54%29.92 "HgN/A
9:25 AM73 °FMild.12 mph57%29.92 "HgN/A
8:55 AM72 °FMild.9 mph57%29.92 "HgN/A
8:25 AM68 °FMild.8 mph64%29.92 "HgN/A
7:55 AM64 °FMild.6 mph68%29.92 "HgN/A
7:25 AM63 °FMild.6 mph73%29.92 "HgN/A
6:55 AM61 °FCool.5 mph72%29.92 "HgN/A
6:25 AM59 °FCool.5 mph77%29.92 "HgN/A
5:55 AM59 °FCool.3 mph77%29.92 "HgN/A
4:55 AM61 °FCool.5 mph72%29.95 "HgN/A
4:25 AM61 °FPassing clouds.7 mph72%29.95 "HgN/A
3:55 AM61 °FCool.7 mph68%29.95 "HgN/A
3:25 AM63 °FMild.7 mph64%29.95 "HgN/A
Weather by CustomWeather, © 2015

See weather overviewHow to use our weather pages